Weather History for KCON - March, 2014

Change the Weather History Date:

Friday, March 28, 2014

  Actual Average Record
Temperature  
Mean Temperature 40 °F 38 °F  
Max Temperature 47 °F 49 °F 86 °F (1998)
Min Temperature 32 °F 27 °F 2 °F (1923)
Degree Days  
Heating Degree Days 25 27  
Month to date heating degree days 1133 907  
Since 1 July heating degree days 6602 6167  
Cooling Degree Days 0 0  
Month to date cooling degree days 0 0  
Year to date cooling degree days 0 0  
Moisture  
Dew Point 33 °F    
Average Humidity 74    
Maximum Humidity 100    
Minimum Humidity 47    
Precipitation  
Precipitation 0.16 in 0.11 in 1.54 in (2005)
Month to date precipitation 1.92 2.94  
Year to date precipitation 9.24 8.26  
Snow  
Snow 0.00 in 0.30 in 9.20 in (1932)
Month to date snowfall 10.2 10.4  
Since 1 July snowfall 80.0 57.9  
Snow Depth 0.00 in    
Sea Level Pressure  
Sea Level Pressure 30.03 in    
Wind  
Wind Speed 6 mph (South)    
Max Wind Speed 16 mph    
Max Gust Speed 23 mph    
Visibility 8 miles    
Events Rain    
T = Trace of Precipitation, MM = Missing Value Source: NWS Daily Summary

Daily Weather History Graph

Daily Weather History Graph

Search for Another Location

Airport or City:

Trip Planner

Search our weather history database for the weather conditions in past years. The results will help you decide how hot, cold, wet, or windy it might be!

Date:

Astronomy

Mar. 28, 2014 Rise Set
Actual Time 6:35 AM EDT 7:07 PM EDT
Civil Twilight 6:06 AM EDT 7:36 PM EDT
Nautical Twilight 5:32 AM EDT 8:10 PM EDT
Astronomical Twilight 4:57 AM EDT 8:45 PM EDT
Moon 5:07 AM EDT (3/28) 4:57 PM EDT (3/28)
Length of Visible Light 13h 29m
Length of Day
12h 32m
Waning Crescent, 6% of the Moon is Illuminated
Mar 28
Waning Crescent
Mar 30
New
Apr 7
First Quarter
Apr 15
Full
Apr 22
Last Quarter

Hourly Weather History & Observations

Time (EDT) Temp. Windchill Dew Point Humidity Pressure Visibility Wind Dir Wind Speed Gust Speed Precip Events Conditions
12:51 AM 34.0 °F 28.8 °F 15.1 °F 46% 30.19 in 10.0 mi SSE 5.8 mph - N/A   Overcast
1:51 AM 34.0 °F 28.8 °F 16.0 °F 48% 30.18 in 10.0 mi South 5.8 mph - N/A   Overcast
2:51 AM 34.0 °F 28.8 °F 17.1 °F 50% 30.17 in 10.0 mi South 5.8 mph - N/A   Overcast
3:51 AM 33.1 °F 30.0 °F 26.1 °F 75% 30.17 in 10.0 mi SW 3.5 mph - 0.00 in   Overcast
4:51 AM 33.1 °F 28.7 °F 27.0 °F 78% 30.15 in 10.0 mi East 4.6 mph - 0.00 in   Overcast
5:51 AM 33.1 °F 26.1 °F 24.1 °F 70% 30.14 in 10.0 mi SSE 8.1 mph - 0.00 in   Overcast
6:51 AM 33.1 °F 26.9 °F 23.0 °F 66% 30.14 in 10.0 mi SSE 6.9 mph - N/A   Overcast
7:20 AM 32.0 °F 27.5 °F 26.1 °F 79% 30.12 in 7.0 mi SSE 4.6 mph - 0.01 in Rain Light Freezing Rain
7:36 AM 32.0 °F 26.4 °F 26.1 °F 79% 30.11 in 10.0 mi SSE 5.8 mph - 0.02 in   Overcast
7:51 AM 33.1 °F 26.9 °F 26.1 °F 75% 30.11 in 10.0 mi SSE 6.9 mph - 0.02 in   Overcast
8:51 AM 34.0 °F 28.8 °F 25.0 °F 70% 30.10 in 10.0 mi SSE 5.8 mph - 0.00 in   Overcast
9:51 AM 36.0 °F 31.1 °F 26.1 °F 67% 30.08 in 10.0 mi SSE 5.8 mph - N/A   Overcast
10:51 AM 37.0 °F 31.6 °F 27.0 °F 67% 30.05 in 10.0 mi SSE 6.9 mph - 0.00 in   Overcast
11:51 AM 39.0 °F 35.7 °F 28.0 °F 65% 30.04 in 10.0 mi SSE 4.6 mph - N/A   Overcast
12:42 PM 42.1 °F 35.7 °F 32.0 °F 67% 29.99 in 10.0 mi SSW 11.5 mph - 0.00 in Rain Light Rain
12:51 PM 42.1 °F 36.6 °F 33.1 °F 70% 30.00 in 10.0 mi SW 9.2 mph - 0.00 in Rain Light Rain
1:51 PM 42.1 °F 38.4 °F 36.0 °F 79% 29.98 in 7.0 mi WSW 5.8 mph - 0.01 in Rain Light Rain
2:25 PM 42.1 °F 38.4 °F 37.9 °F 85% 29.95 in 5.0 mi SSW 5.8 mph - 0.02 in Rain Light Rain
2:47 PM 41.0 °F 38.0 °F 39.2 °F 93% 29.95 in 5.0 mi SW 4.6 mph - 0.04 in Rain Light Rain
2:51 PM 41.0 °F 38.0 °F 39.0 °F 93% 29.97 in 5.0 mi SSW 4.6 mph - 0.04 in Rain Light Rain
3:18 PM 42.1 °F - 41.0 °F 96% 29.95 in 2.0 mi Calm Calm - 0.02 in Rain Light Rain
3:39 PM 41.0 °F 36.4 °F 41.0 °F 100% 29.94 in 3.0 mi SSE 6.9 mph - 0.05 in Rain Light Rain
3:51 PM 39.9 °F 35.1 °F 39.9 °F 100% 29.95 in 3.0 mi SSE 6.9 mph - 0.05 in Rain Light Rain
3:55 PM 39.9 °F 36.7 °F 39.9 °F 100% 29.93 in 1.8 mi South 4.6 mph - 0.00 in Rain Light Rain
4:05 PM 41.0 °F 37.1 °F 41.0 °F 100% 29.92 in 3.0 mi SSE 5.8 mph - 0.00 in Rain Light Rain
4:35 PM 41.0 °F - 39.9 °F 96% 29.93 in 2.5 mi Calm Calm - 0.02 in Rain Light Rain
4:51 PM 42.1 °F 39.2 °F 41.0 °F 96% 29.93 in 3.0 mi SSE 4.6 mph - 0.03 in Rain Light Rain
5:51 PM 42.1 °F 39.2 °F 41.0 °F 96% 29.92 in 3.0 mi SSE 4.6 mph - 0.01 in   Overcast
6:51 PM 44.1 °F 42.5 °F 42.1 °F 93% 29.95 in 10.0 mi SW 3.5 mph - N/A   Overcast
7:51 PM 43.0 °F 39.5 °F 42.1 °F 97% 29.94 in 10.0 mi South 5.8 mph - N/A   Overcast
8:51 PM 45.0 °F 40.6 °F 43.0 °F 93% 29.96 in 10.0 mi SSW 8.1 mph - N/A   Overcast
9:51 PM 45.0 °F 41.2 °F 43.0 °F 93% 29.98 in 10.0 mi SW 6.9 mph - N/A   Overcast
10:51 PM 46.0 °F 43.9 °F 43.0 °F 89% 29.98 in 10.0 mi WSW 4.6 mph - N/A   Overcast
11:51 PM 43.0 °F 41.3 °F 42.1 °F 97% 30.00 in 3.0 mi NE 3.5 mph - N/A   Overcast
11:58 PM 42.1 °F - 42.1 °F 100% 30.00 in 1.8 mi Calm Calm - N/A   Overcast